Location: Albany
(35.0000°S, 118.0000°E)
Time: 02:55:49
(UTC-04:00)

Atlas Centaur 2 - Visible Passes

Search period start: 18 August 2017 00:00
Search period end: 28 August 2017 00:00
Orbit: 459 x 1313 km, 30.4° (Epoch: 17 August)

Date Brightness Start Highest point End Pass type
(mag) Time Alt. Az. Time Alt. Az. Time Alt. Az.
19 Aug 3.7 16:40:33 12° NNE 16:40:47 12° NNE 16:42:11 10° NE visible
20 Aug 3.5 16:37:46 15° NNE 16:37:46 15° NNE 16:39:40 10° ENE visible
21 Aug 3.3 16:34:55 18° NE 16:34:55 18° NE 16:36:51 10° ENE visible
22 Aug 3.2 16:32:01 20° NE 16:32:01 20° NE 16:33:53 10° ENE visible
23 Aug 3.2 16:29:03 22° NE 16:29:03 22° NE 16:30:51 10° ENE visible
24 Aug 3.2 16:26:03 22° NE 16:26:03 22° NE 16:27:46 10° ENE visible
24 Aug 2.0 18:09:26 10° WNW 18:12:48 38° N 18:16:19 10° ENE visible
25 Aug 3.2 16:23:02 22° ENE 16:23:02 22° ENE 16:24:39 10° ENE visible
25 Aug 2.1 18:06:16 10° WNW 18:09:36 36° N 18:13:01 10° ENE visible
26 Aug 3.3 16:20:01 22° ENE 16:20:01 22° ENE 16:21:32 10° ENE visible
26 Aug 2.2 18:03:07 10° WNW 18:06:24 32° N 18:09:41 10° NE visible
27 Aug 3.4 16:16:58 21° ENE 16:16:58 21° ENE 16:18:23 10° ENE visible
27 Aug 2.4 17:59:59 10° WNW 18:03:10 28° NNW 18:06:19 10° NE visible
